Time,TemperatureF,DewpointF,PressureIn,WindDirection,WindDirectionDegrees,WindSpeedMPH,WindSpeedGustMPH,Humidity,HourlyPrecipIn,Conditions,Clouds,dailyrainin,SoftwareType,DateUTC
2013-03-10 00:01:00,8.0,5.0,30.28,WNW,302,13.0,-999.0,86,-99.99,,,-99.99,,2013-03-10 06:01:00,
2013-03-10 00:11:00,8.0,5.0,30.28,WNW,302,13.0,-999.0,86,-99.99,,,-99.99,,2013-03-10 06:11:00,
2013-03-10 00:22:00,8.0,5.0,30.28,WNW,295,13.0,-999.0,86,-99.99,,,-99.99,,2013-03-10 06:22:00,
2013-03-10 00:32:00,7.0,4.0,30.28,WNW,299,13.0,-999.0,86,-99.99,,,-99.99,,2013-03-10 06:32:00,
2013-03-10 00:42:00,7.0,4.0,30.29,WNW,294,14.0,-999.0,86,-99.99,,,-99.99,,2013-03-10 06:42:00,
2013-03-10 00:51:00,7.0,4.0,30.29,WNW,294,14.0,-999.0,86,-99.99,,,-99.99,,2013-03-10 06:51:00,
2013-03-10 01:01:00,7.0,4.0,30.28,WNW,301,14.0,-999.0,86,-99.99,,,-99.99,,2013-03-10 07:01:00,
2013-03-10 01:11:00,6.0,3.0,30.28,WNW,295,13.0,-999.0,86,-99.99,,,-99.99,,2013-03-10 07:11:00,
2013-03-10 01:21:00,6.0,3.0,30.28,WNW,295,13.0,-999.0,86,-99.99,,,-99.99,,2013-03-10 07:21:00,
2013-03-10 01:31:00,6.0,3.0,30.28,WNW,300,12.0,-999.0,86,-99.99,,,-99.99,,2013-03-10 07:31:00,
2013-03-10 01:42:00,5.0,2.0,30.28,WNW,288,13.0,-999.0,86,-99.99,,,-99.99,,2013-03-10 07:42:00,
2013-03-10 01:52:00,5.0,2.0,30.28,WNW,288,13.0,-999.0,86,-99.99,,,-99.99,,2013-03-10 07:52:00,
2013-03-10 03:01:00,5.0,2.0,30.29,NW,304,12.0,-999.0,86,-99.99,,,-99.99,,2013-03-10 08:01:00,
2013-03-10 03:11:00,5.0,2.0,30.29,NW,304,12.0,-999.0,86,-99.99,,,-99.99,,2013-03-10 08:11:00,
2013-03-10 03:21:00,5.0,2.0,30.30,NW,304,13.0,-999.0,86,-99.99,,,-99.99,,2013-03-10 08:21:00,
2013-03-10 03:31:00,5.0,2.0,30.30,WNW,296,12.0,-999.0,86,-99.99,,,-99.99,,2013-03-10 08:31:00,
2013-03-10 03:42:00,4.0,1.0,30.30,NW,314,9.0,-999.0,86,-99.99,,,-99.99,,2013-03-10 08:42:00,
2013-03-10 03:51:00,4.0,1.0,30.30,NW,314,9.0,-999.0,86,-99.99,,,-99.99,,2013-03-10 08:51:00,
2013-03-10 04:01:00,2.0,-1.0,30.30,NW,323,6.0,-999.0,85,-99.99,,,-99.99,,2013-03-10 09:01:00,
2013-03-10 04:11:00,2.0,-1.0,30.30,NW,323,6.0,-999.0,85,-99.99,,,-99.99,,2013-03-10 09:11:00,
2013-03-10 04:21:00,3.0,0.0,30.30,NW,311,7.0,-999.0,87,-99.99,,,-99.99,,2013-03-10 09:21:00,
2013-03-10 04:31:00,3.0,0.0,30.30,NW,315,7.0,-999.0,86,-99.99,,,-99.99,,2013-03-10 09:31:00,
2013-03-10 04:41:00,3.0,0.0,30.30,NW,315,7.0,-999.0,86,-99.99,,,-99.99,,2013-03-10 09:41:00,
2013-03-10 04:51:00,3.0,0.0,30.30,NW,311,7.0,-999.0,86,-99.99,,,-99.99,,2013-03-10 09:51:00,
2013-03-10 05:01:00,3.0,0.0,30.30,NW,308,8.0,-999.0,86,-99.99,,,-99.99,,2013-03-10 10:01:00,
2013-03-10 05:11:00,3.0,0.0,30.30,NW,308,8.0,-999.0,86,-99.99,,,-99.99,,2013-03-10 10:11:00,
2013-03-10 05:21:00,2.0,-1.0,30.32,NW,309,8.0,-999.0,86,-99.99,,,-99.99,,2013-03-10 10:21:00,
2013-03-10 05:32:00,2.0,-1.0,30.32,WNW,294,9.0,-999.0,86,-99.99,,,-99.99,,2013-03-10 10:32:00,
2013-03-10 05:41:00,2.0,-1.0,30.33,WNW,300,9.0,-999.0,86,-99.99,,,-99.99,,2013-03-10 10:41:00,
2013-03-10 05:52:00,2.0,-1.0,30.33,WNW,300,9.0,-999.0,86,-99.99,,,-99.99,,2013-03-10 10:52:00,
2013-03-10 06:01:00,2.0,-1.0,30.33,WNW,301,10.0,-999.0,86,-99.99,,,-99.99,,2013-03-10 11:01:00,
2013-03-10 06:12:00,2.0,-1.0,30.34,WNW,300,11.0,-999.0,86,-99.99,,,-99.99,,2013-03-10 11:12:00,
2013-03-10 06:21:00,2.0,-1.0,30.34,WNW,300,11.0,-999.0,86,-99.99,,,-99.99,,2013-03-10 11:21:00,
2013-03-10 06:32:00,2.0,-1.0,30.34,WNW,295,10.0,-999.0,86,-99.99,,,-99.99,,2013-03-10 11:32:00,
2013-03-10 06:42:00,2.0,-1.0,30.34,WNW,295,10.0,-999.0,86,-99.99,,,-99.99,,2013-03-10 11:42:00,
2013-03-10 06:52:00,1.0,-2.0,30.34,WNW,287,9.0,-999.0,85,-99.99,,,-99.99,,2013-03-10 11:52:00,
2013-03-10 07:01:00,0.0,-3.0,30.35,WNW,288,6.0,-999.0,85,-99.99,,,-99.99,,2013-03-10 12:01:00,
2013-03-10 07:11:00,0.0,-3.0,30.35,WNW,288,6.0,-999.0,85,-99.99,,,-99.99,,2013-03-10 12:11:00,
2013-03-10 07:21:00,-1.0,-4.0,30.36,West,267,7.0,-999.0,85,-99.99,,,-99.99,,2013-03-10 12:21:00,
2013-03-10 07:31:00,0.0,-3.0,30.36,West,277,9.0,-999.0,86,-99.99,,,-99.99,,2013-03-10 12:31:00,
2013-03-10 07:42:00,0.0,-3.0,30.36,West,277,9.0,-999.0,86,-99.99,,,-99.99,,2013-03-10 12:42:00,
2013-03-10 07:51:00,-1.0,-4.0,30.37,West,271,10.0,-999.0,86,-99.99,,,-99.99,,2013-03-10 12:51:00,
2013-03-10 08:01:00,-1.0,-4.0,30.38,West,277,10.0,-999.0,86,-99.99,,,-99.99,,2013-03-10 13:01:00,
2013-03-10 08:11:00,-1.0,-4.0,30.38,West,277,10.0,-999.0,86,-99.99,,,-99.99,,2013-03-10 13:11:00,
2013-03-10 08:21:00,-1.0,-4.0,30.39,WNW,294,7.0,-999.0,86,-99.99,,,-99.99,,2013-03-10 13:21:00,
2013-03-10 08:31:00,-1.0,-4.0,30.39,WNW,289,6.0,-999.0,86,-99.99,,,-99.99,,2013-03-10 13:31:00,
2013-03-10 08:41:00,-1.0,-4.0,30.39,WNW,289,6.0,-999.0,86,-99.99,,,-99.99,,2013-03-10 13:41:00,
2013-03-10 08:52:00,-2.0,-5.0,30.40,WNW,294,3.0,-999.0,85,-99.99,,,-99.99,,2013-03-10 13:52:00,
2013-03-10 09:01:00,-2.0,-5.0,30.40,WNW,298,4.0,-999.0,86,-99.99,,,-99.99,,2013-03-10 14:01:00,
2013-03-10 09:11:00,-2.0,-5.0,30.40,WNW,298,4.0,-999.0,86,-99.99,,,-99.99,,2013-03-10 14:11:00,
2013-03-10 09:21:00,-2.0,-5.0,30.40,WNW,296,3.0,-999.0,86,-99.99,,,-99.99,,2013-03-10 14:21:00,
2013-03-10 09:32:00,-1.0,-4.0,30.41,West,267,6.0,-999.0,86,-99.99,,,-99.99,,2013-03-10 14:32:00,
2013-03-10 09:41:00,-1.0,-4.0,30.41,West,267,6.0,-999.0,86,-99.99,,,-99.99,,2013-03-10 14:41:00,
2013-03-10 09:51:00,-1.0,-4.0,30.41,West,267,8.0,-999.0,86,-99.99,,,-99.99,,2013-03-10 14:51:00,
2013-03-10 10:01:00,0.0,-3.0,30.41,West,261,8.0,-999.0,86,-99.99,,,-99.99,,2013-03-10 15:01:00,
2013-03-10 10:11:00,0.0,-3.0,30.41,West,261,8.0,-999.0,86,-99.99,,,-99.99,,2013-03-10 15:11:00,
2013-03-10 10:21:00,0.0,-3.0,30.42,West,272,9.0,-999.0,85,-99.99,,,-99.99,,2013-03-10 15:21:00,
2013-03-10 10:32:00,1.0,-2.0,30.42,West,273,9.0,-999.0,85,-99.99,,,-99.99,,2013-03-10 15:32:00,
2013-03-10 10:42:00,1.0,-2.0,30.42,West,273,9.0,-999.0,85,-99.99,,,-99.99,,2013-03-10 15:42:00,
2013-03-10 10:51:00,2.0,-1.0,30.43,WNW,300,9.0,-999.0,85,-99.99,,,-99.99,,2013-03-10 15:51:00,
2013-03-10 11:01:00,2.0,-2.0,30.42,WNW,293,6.0,-999.0,84,-99.99,,,-99.99,,2013-03-10 16:01:00,
2013-03-10 11:12:00,2.0,-2.0,30.42,WNW,293,6.0,-999.0,84,-99.99,,,-99.99,,2013-03-10 16:12:00,
2013-03-10 11:21:00,3.0,-1.0,30.42,WNW,290,4.0,-999.0,84,-99.99,,,-99.99,,2013-03-10 16:21:00,
2013-03-10 11:31:00,4.0,0.0,30.42,WNW,290,5.0,-999.0,84,-99.99,,,-99.99,,2013-03-10 16:31:00,
2013-03-10 11:41:00,4.0,0.0,30.42,WNW,290,5.0,-999.0,84,-99.99,,,-99.99,,2013-03-10 16:41:00,
2013-03-10 11:51:00,5.0,1.0,30.42,WNW,302,6.0,-999.0,84,-99.99,,,-99.99,,2013-03-10 16:51:00,
2013-03-10 12:01:00,6.0,2.0,30.42,WNW,300,3.0,-999.0,84,-99.99,,,-99.99,,2013-03-10 17:01:00,
2013-03-10 12:11:00,6.0,2.0,30.42,WNW,300,3.0,-999.0,84,-99.99,,,-99.99,,2013-03-10 17:11:00,
2013-03-10 12:21:00,7.0,3.0,30.42,WNW,298,4.0,-999.0,83,-99.99,,,-99.99,,2013-03-10 17:21:00,
2013-03-10 12:31:00,8.0,4.0,30.42,WNW,296,4.0,-999.0,83,-99.99,,,-99.99,,2013-03-10 17:31:00,
2013-03-10 12:41:00,8.0,4.0,30.42,WNW,296,4.0,-999.0,83,-99.99,,,-99.99,,2013-03-10 17:41:00,
2013-03-10 12:51:00,9.0,5.0,30.40,WNW,296,3.0,-999.0,83,-99.99,,,-99.99,,2013-03-10 17:51:00,
2013-03-10 13:01:00,10.0,6.0,30.38,WNW,296,2.0,-999.0,83,-99.99,,,-99.99,,2013-03-10 18:01:00,
2013-03-10 13:11:00,10.0,6.0,30.38,WNW,296,2.0,-999.0,83,-99.99,,,-99.99,,2013-03-10 18:11:00,
2013-03-10 13:21:00,10.0,6.0,30.40,WNW,294,3.0,-999.0,82,-99.99,,,-99.99,,2013-03-10 18:21:00,
2013-03-10 13:32:00,11.0,7.0,30.41,WNW,287,5.0,-999.0,83,-99.99,,,-99.99,,2013-03-10 18:32:00,
2013-03-10 13:42:00,11.0,7.0,30.41,WNW,287,5.0,-999.0,83,-99.99,,,-99.99,,2013-03-10 18:42:00,
2013-03-10 13:52:00,12.0,8.0,30.42,WNW,302,5.0,-999.0,83,-99.99,,,-99.99,,2013-03-10 18:52:00,
2013-03-10 14:01:00,12.0,8.0,30.41,WNW,299,5.0,-999.0,83,-99.99,,,-99.99,,2013-03-10 19:01:00,
2013-03-10 14:11:00,12.0,8.0,30.41,WNW,299,5.0,-999.0,83,-99.99,,,-99.99,,2013-03-10 19:11:00,
2013-03-10 14:21:00,13.0,9.0,30.39,WNW,298,3.0,-999.0,83,-99.99,,,-99.99,,2013-03-10 19:21:00,
2013-03-10 14:32:00,14.0,10.0,30.38,WNW,298,3.0,-999.0,82,-99.99,,,-99.99,,2013-03-10 19:32:00,
2013-03-10 14:42:00,14.0,10.0,30.38,WNW,298,3.0,-999.0,82,-99.99,,,-99.99,,2013-03-10 19:42:00,
2013-03-10 14:52:00,14.0,10.0,30.38,WNW,298,3.0,-999.0,82,-99.99,,,-99.99,,2013-03-10 19:52:00,
2013-03-10 15:02:00,15.0,11.0,30.37,WNW,298,3.0,-999.0,82,-99.99,,,-99.99,,2013-03-10 20:02:00,
2013-03-10 15:12:00,15.0,11.0,30.37,WNW,298,3.0,-999.0,82,-99.99,,,-99.99,,2013-03-10 20:12:00,
2013-03-10 15:22:00,16.0,11.0,30.36,WNW,298,2.0,-999.0,80,-99.99,,,-99.99,,2013-03-10 20:22:00,
2013-03-10 15:32:00,16.0,11.0,30.35,NW,304,3.0,-999.0,80,-99.99,,,-99.99,,2013-03-10 20:32:00,
2013-03-10 15:42:00,16.0,11.0,30.35,NW,304,3.0,-999.0,80,-99.99,,,-99.99,,2013-03-10 20:42:00,
2013-03-10 15:52:00,17.0,12.0,30.35,NW,309,3.0,-999.0,81,-99.99,,,-99.99,,2013-03-10 20:52:00,
2013-03-10 16:02:00,17.0,12.0,30.34,NW,309,2.0,-999.0,79,-99.99,,,-99.99,,2013-03-10 21:02:00,
2013-03-10 16:12:00,17.0,12.0,30.34,NW,309,2.0,-999.0,79,-99.99,,,-99.99,,2013-03-10 21:12:00,
2013-03-10 16:22:00,17.0,12.0,30.33,NW,309,3.0,-999.0,79,-99.99,,,-99.99,,2013-03-10 21:22:00,
2013-03-10 16:32:00,18.0,13.0,30.32,NW,309,2.0,-999.0,79,-99.99,,,-99.99,,2013-03-10 21:32:00,
2013-03-10 16:42:00,18.0,13.0,30.32,NW,309,2.0,-999.0,79,-99.99,,,-99.99,,2013-03-10 21:42:00,
2013-03-10 16:52:00,19.0,14.0,30.32,NW,309,0.0,-999.0,79,-99.99,,,-99.99,,2013-03-10 21:52:00,
2013-03-10 17:02:00,20.0,13.0,30.32,NW,309,0.0,-999.0,75,-99.99,,,-99.99,,2013-03-10 22:02:00,
2013-03-10 17:12:00,20.0,13.0,30.32,NW,309,0.0,-999.0,75,-99.99,,,-99.99,,2013-03-10 22:12:00,
2013-03-10 17:22:00,21.0,14.0,30.31,NW,309,0.0,-999.0,74,-99.99,,,-99.99,,2013-03-10 22:22:00,
2013-03-10 17:32:00,19.0,13.0,30.30,NW,309,0.0,-999.0,77,-99.99,,,-99.99,,2013-03-10 22:32:00,
2013-03-10 17:43:00,19.0,13.0,30.30,NW,309,0.0,-999.0,77,-99.99,,,-99.99,,2013-03-10 22:43:00,
2013-03-10 17:52:00,18.0,12.0,30.32,NW,309,0.0,-999.0,78,-99.99,,,-99.99,,2013-03-10 22:52:00,
2013-03-10 18:03:00,17.0,12.0,30.30,NW,309,1.0,-999.0,80,-99.99,,,-99.99,,2013-03-10 23:03:00,
2013-03-10 18:12:00,15.0,11.0,30.29,SE,146,4.0,-999.0,83,-99.99,,,-99.99,,2013-03-10 23:12:00,
2013-03-10 18:22:00,15.0,11.0,30.29,SE,146,4.0,-999.0,83,-99.99,,,-99.99,,2013-03-10 23:22:00,
2013-03-10 18:32:00,15.0,11.0,30.29,SE,146,4.0,-999.0,83,-99.99,,,-99.99,,2013-03-10 23:32:00,
2013-03-10 18:42:00,15.0,11.0,30.29,SE,146,4.0,-999.0,83,-99.99,,,-99.99,,2013-03-10 23:42:00,
2013-03-10 18:52:00,15.0,11.0,30.27,SSE,153,3.0,-999.0,85,-99.99,,,-99.99,,2013-03-10 23:52:00,
2013-03-10 19:02:00,16.0,12.0,30.27,SSE,153,2.0,-999.0,85,-99.99,,,-99.99,,2013-03-11 00:02:00,
2013-03-10 19:12:00,16.0,12.0,30.27,SSE,153,2.0,-999.0,85,-99.99,,,-99.99,,2013-03-11 00:12:00,
2013-03-10 19:22:00,13.0,9.0,30.25,SSE,157,4.0,-999.0,84,-99.99,,,-99.99,,2013-03-11 00:22:00,
2013-03-10 19:33:00,12.0,9.0,30.25,SSE,159,5.0,-999.0,86,-99.99,,,-99.99,,2013-03-11 00:33:00,
2013-03-10 19:43:00,12.0,9.0,30.25,SSE,159,5.0,-999.0,86,-99.99,,,-99.99,,2013-03-11 00:43:00,
2013-03-10 19:52:00,11.0,8.0,30.26,SSE,159,1.0,-999.0,87,-99.99,,,-99.99,,2013-03-11 00:52:00,
2013-03-10 20:02:00,11.0,8.0,30.26,SSE,159,2.0,-999.0,87,-99.99,,,-99.99,,2013-03-11 01:02:00,
2013-03-10 20:13:00,11.0,8.0,30.26,SSE,159,2.0,-999.0,87,-99.99,,,-99.99,,2013-03-11 01:13:00,
2013-03-10 20:22:00,9.0,6.0,30.25,SSE,159,3.0,-999.0,86,-99.99,,,-99.99,,2013-03-11 01:22:00,
2013-03-10 20:32:00,8.0,5.0,30.24,SSE,159,3.0,-999.0,87,-99.99,,,-99.99,,2013-03-11 01:32:00,
2013-03-10 20:42:00,8.0,5.0,30.24,SSE,159,3.0,-999.0,87,-99.99,,,-99.99,,2013-03-11 01:42:00,
2013-03-10 20:52:00,9.0,6.0,30.24,SSE,157,6.0,-999.0,88,-99.99,,,-99.99,,2013-03-11 01:52:00,
2013-03-10 21:02:00,8.0,5.0,30.24,SSE,161,4.0,-999.0,88,-99.99,,,-99.99,,2013-03-11 02:02:00,
2013-03-10 21:12:00,8.0,5.0,30.24,SSE,161,4.0,-999.0,88,-99.99,,,-99.99,,2013-03-11 02:12:00,
2013-03-10 21:22:00,7.0,4.0,30.24,SSE,161,1.0,-999.0,87,-99.99,,,-99.99,,2013-03-11 02:22:00,
2013-03-10 21:32:00,6.0,3.0,30.23,SSE,161,1.0,-999.0,88,-99.99,,,-99.99,,2013-03-11 02:32:00,
2013-03-10 21:42:00,6.0,3.0,30.23,SSE,161,1.0,-999.0,88,-99.99,,,-99.99,,2013-03-11 02:42:00,
2013-03-10 21:52:00,5.0,2.0,30.22,SSE,161,0.0,-999.0,87,-99.99,,,-99.99,,2013-03-11 02:52:00,
2013-03-10 22:02:00,5.0,2.0,30.22,SSE,160,0.0,-999.0,87,-99.99,,,-99.99,,2013-03-11 03:02:00,
2013-03-10 22:12:00,5.0,2.0,30.22,SSE,160,0.0,-999.0,87,-99.99,,,-99.99,,2013-03-11 03:12:00,
2013-03-10 22:22:00,9.0,6.0,30.21,SSE,159,6.0,-999.0,89,-99.99,,,-99.99,,2013-03-11 03:22:00,
2013-03-10 22:32:00,10.0,7.0,30.22,SSE,156,7.0,-999.0,88,-99.99,,,-99.99,,2013-03-11 03:32:00,
2013-03-10 22:42:00,10.0,7.0,30.22,SSE,156,7.0,-999.0,88,-99.99,,,-99.99,,2013-03-11 03:42:00,
2013-03-10 22:52:00,9.0,6.0,30.21,SSE,160,5.0,-999.0,88,-99.99,,,-99.99,,2013-03-11 03:52:00,
2013-03-10 23:02:00,10.0,7.0,30.20,SSE,155,7.0,-999.0,88,-99.99,,,-99.99,,2013-03-11 04:02:00,
2013-03-10 23:12:00,10.0,7.0,30.20,SSE,155,7.0,-999.0,88,-99.99,,,-99.99,,2013-03-11 04:12:00,
2013-03-10 23:22:00,10.0,7.0,30.22,SSE,160,4.0,-999.0,88,-99.99,,,-99.99,,2013-03-11 04:22:00,
2013-03-10 23:32:00,9.0,6.0,30.19,SSE,160,4.0,-999.0,88,-99.99,,,-99.99,,2013-03-11 04:32:00,
2013-03-10 23:42:00,9.0,6.0,30.19,SSE,160,4.0,-999.0,88,-99.99,,,-99.99,,2013-03-11 04:42:00,
2013-03-10 23:52:00,10.0,7.0,30.19,SSE,160,1.0,-999.0,88,-99.99,,,-99.99,,2013-03-11 04:52:00,